Date,TemperatureHighF,TemperatureAvgF,TemperatureLowF,DewpointHighF,DewpointAvgF,DewpointLowF,HumidityHigh,HumidityAvg,HumidityLow,PressureMaxIn,PressureMinIn,WindSpeedMaxMPH,WindSpeedAvgMPH,GustSpeedMaxMPH,PrecipitationSumIn
2013-1-1,38.0,35.7,28.0,28.8,26.6,19.5,77,69,63,29.97,29.85,15,6,21,0.16
2013-1-2,31.0,25.0,18.0,20.1,14.0,10.3,81,63,44,30.16,29.94,17,7,20,0.00
2013-1-3,36.0,22.3,8.0,23.1,15.3,8.0,100,77,47,30.18,30.05,13,3,17,0.00
2013-1-4,37.0,31.7,28.0,22.0,19.8,17.8,70,61,50,30.10,30.00,23,7,33,0.00
2013-1-5,40.0,30.8,22.0,26.2,20.5,17.1,95,67,47,30.28,30.05,19,5,23,0.00
2013-1-6,45.0,34.6,20.0,32.1,25.9,20.0,100,73,47,30.11,29.96,15,3,19,0.00
2013-1-7,40.0,33.2,19.0,28.6,24.8,19.0,100,73,55,30.37,30.08,16,4,17,0.00
2013-1-8,46.0,27.8,17.0,33.5,24.6,17.0,100,89,59,30.34,30.29,6,1,7,0.00
2013-1-9,49.0,36.3,21.0,41.5,29.5,21.0,100,79,47,30.32,30.15,22,4,22,0.01
2013-1-10,47.0,39.5,32.0,31.1,26.9,22.7,93,62,43,30.52,30.29,16,4,16,0.00
2013-1-11,40.0,34.9,29.0,37.0,33.0,27.5,100,93,69,30.44,30.04,9,1,9,0.40
2013-1-12,52.0,40.9,35.0,46.7,39.6,35.0,100,96,78,30.12,30.03,6,1,7,0.01
2013-1-13,49.0,44.1,36.0,49.0,44.1,36.0,100,100,100,30.07,29.91,7,1,7,0.01
2013-1-14,54.0,46.6,36.0,54.0,39.0,26.5,100,77,50,30.26,29.91,22,7,24,0.18
2013-1-15,37.0,34.9,31.0,36.0,31.2,26.6,100,87,68,30.30,30.11,12,4,13,0.36
2013-1-16,33.0,31.6,30.0,33.0,31.6,30.0,100,100,100,30.12,29.81,7,1,7,0.46
2013-1-17,39.0,35.3,31.0,36.0,28.9,24.0,100,78,59,30.07,29.90,18,4,18,0.00
2013-1-18,34.0,26.5,18.0,30.0,15.7,5.1,100,66,37,30.42,29.97,27,8,27,0.00
2013-1-19,52.0,31.1,18.0,31.4,24.4,18.0,100,80,36,30.32,29.85,12,3,13,0.00
2013-1-20,51.0,36.5,24.0,30.7,19.9,6.8,100,57,23,30.03,29.71,29,8,31,0.00
2013-1-21,36.0,25.6,18.0,24.2,15.8,5.6,90,67,50,30.05,29.77,32,7,32,0.00
2013-1-22,20.0,14.0,9.0,7.5,-1.0,-6.0,64,51,38,30.22,29.90,29,10,29,0.00
2013-1-23,19.0,14.2,5.0,8.0,1.3,-3.3,92,57,38,30.25,30.08,24,6,24,0.00
2013-1-24,23.0,15.6,8.0,12.0,4.8,-2.1,100,65,36,30.43,30.04,29,8,29,0.00
2013-1-25,17.0,13.3,8.0,15.3,7.2,-1.1,100,78,51,30.43,29.99,13,4,13,0.00
2013-1-26,28.0,19.6,10.0,22.0,16.2,10.0,100,88,62,30.35,30.01,13,4,13,0.01
2013-1-27,33.0,20.6,7.0,21.0,15.1,7.0,100,82,42,30.49,30.35,9,2,9,0.02
2013-1-28,33.0,30.5,25.0,33.0,30.1,20.1,100,98,78,30.39,29.97,8,1,8,0.00
2013-1-29,62.0,43.8,33.0,53.0,41.6,33.0,100,93,70,30.04,29.91,10,3,10,0.03
2013-1-30,64.0,47.8,34.0,60.0,47.2,34.0,100,98,86,29.91,29.23,23,4,23,1.34
2013-1-31,52.0,35.6,24.0,52.0,23.5,7.6,100,62,44,29.80,29.12,36,12,41,0.46
2013-2-1,25.0,20.6,13.0,21.8,8.9,2.7,95,61,46,30.28,29.76,28,12,32,0.00
2013-2-2,22.0,18.6,11.0,20.0,12.4,4.7,100,78,54,30.27,29.95,15,6,16,0.00
2013-2-3,28.0,25.1,15.0,27.5,22.2,12.6,100,89,62,29.94,29.74,19,5,26,0.01
2013-2-4,34.0,26.5,19.0,25.8,16.6,8.1,99,68,45,30.00,29.81,18,6,18,0.01
2013-2-5,35.0,29.5,24.0,31.5,28.7,24.0,100,97,83,29.87,29.79,6,1,7,0.02
2013-2-6,36.0,29.3,20.0,29.3,22.8,17.1,100,78,56,30.29,29.86,16,5,16,0.00
2013-2-7,34.0,26.3,18.0,26.7,20.8,18.0,100,81,52,30.37,30.16,12,4,13,0.00
2013-2-8,37.0,32.4,26.0,34.6,29.5,17.6,100,90,69,30.15,29.70,32,9,38,0.02
2013-2-9,35.0,27.0,21.0,18.5,14.5,11.3,78,60,39,30.32,29.85,32,13,38,0.00
2013-2-10,41.0,25.6,12.0,22.9,15.7,12.0,100,72,33,30.39,30.15,15,4,15,0.00
2013-2-11,54.0,39.6,30.0,44.0,35.0,20.4,100,87,32,30.15,29.62,25,4,28,0.28
2013-2-12,48.0,36.5,25.0,28.8,24.8,22.8,99,65,43,29.94,29.76,25,8,28,0.00
2013-2-13,39.0,28.3,20.0,32.0,26.6,20.0,100,94,64,29.91,29.63,8,2,10,0.01
2013-2-14,47.0,34.1,25.0,32.0,27.3,22.9,100,78,48,29.93,29.70,15,5,16,0.12
2013-2-15,50.0,35.6,23.0,35.0,30.3,23.0,100,84,48,29.96,29.88,17,4,19,0.08
2013-2-16,33.0,30.3,26.0,30.8,22.1,12.6,100,73,50,29.93,29.77,15,8,16,0.01
2013-2-17,27.0,22.6,18.0,17.2,10.5,1.6,81,60,44,30.12,29.77,27,12,30,0.00
2013-2-18,39.0,26.5,15.0,21.2,10.2,3.2,94,53,25,30.27,30.06,20,6,26,0.00
2013-2-19,40.0,36.0,21.0,37.1,32.5,19.5,100,88,54,30.06,29.62,17,7,22,0.30
2013-2-22,29.0,28.1,28.0,26.2,24.7,21.7,93,87,75,30.20,30.14,12,5,12,0.00
2013-2-23,44.0,34.3,28.0,40.0,33.1,26.0,100,95,82,30.13,29.76,7,1,7,0.01
2013-2-24,43.0,35.8,29.0,37.0,29.2,18.7,100,79,48,30.03,29.73,20,7,28,0.00
2013-2-25,45.0,33.8,23.0,25.0,21.8,17.4,99,65,40,30.15,30.02,19,6,19,0.00
2013-2-26,37.0,31.3,21.0,36.0,29.5,21.0,100,94,68,30.16,29.64,13,5,15,0.98
2013-2-27,49.0,41.2,34.0,39.5,34.0,29.3,100,77,53,29.64,29.50,23,7,24,0.14
2013-2-28,41.0,37.0,30.0,35.3,29.6,26.3,100,75,57,29.65,29.56,17,7,19,0.02
2013-3-1,40.0,34.7,32.0,29.8,24.6,21.6,77,67,57,29.81,29.65,22,12,22,0.00
2013-3-2,34.0,30.4,27.0,22.6,20.4,17.3,74,66,52,29.81,29.74,18,11,19,0.00
2013-3-3,33.0,28.5,26.0,20.1,18.9,16.1,74,67,55,29.82,29.73,24,11,24,0.00
2013-3-4,36.0,25.7,23.0,18.1,14.1,12.4,69,62,44,29.94,29.83,22,12,22,0.00
2013-3-5,43.0,34.8,30.0,26.5,21.8,12.8,75,59,41,29.99,29.79,13,6,13,0.00
2013-3-6,31.0,30.9,30.0,31.0,30.9,30.0,100,100,100,29.70,29.68,19,13,19,0.00
2013-5-16,76.0,67.6,61.0,46.1,41.8,39.2,58,40,28,29.85,29.81,11,3,11,0.00
2013-5-17,76.0,67.2,49.0,47.6,40.0,27.0,73,40,20,30.08,29.84,12,4,12,0.00
2013-5-18,67.0,58.7,53.0,51.2,46.9,38.5,81,66,45,30.15,30.03,12,3,12,0.01
2013-5-19,64.0,59.8,55.0,56.3,53.3,49.6,82,79,74,30.10,30.01,7,2,7,0.04
2013-5-20,79.0,67.9,61.0,61.5,56.6,54.0,81,68,46,30.05,29.89,13,2,15,0.01
2013-5-21,85.0,69.9,57.0,63.4,57.4,51.2,81,67,41,29.97,29.81,12,2,17,0.00
2013-5-22,88.0,71.5,60.0,63.4,55.8,47.2,82,62,26,29.95,29.76,22,3,30,0.14
2013-5-23,77.0,66.3,60.0,60.0,56.2,49.8,81,71,50,29.84,29.69,24,2,27,0.16
2013-5-24,61.0,52.8,44.0,54.1,38.0,22.9,80,58,42,29.96,29.65,26,11,34,0.02
2013-5-25,63.0,51.6,41.0,30.4,24.2,15.8,58,37,17,30.01,29.91,28,13,31,0.00
2013-5-26,68.0,55.8,46.0,33.0,25.6,19.6,55,33,18,30.08,29.95,23,8,23,0.00
2013-5-27,71.0,56.5,36.0,50.5,33.4,21.5,78,46,17,30.21,30.03,10,2,14,0.00
2013-5-28,71.0,59.7,52.0,57.4,49.3,42.1,79,69,53,30.08,29.99,7,1,9,0.13
2013-5-29,87.0,72.4,59.0,60.1,53.4,48.1,81,56,28,30.14,29.96,10,2,17,0.00
2013-5-30,90.0,74.7,58.0,63.2,54.3,45.9,81,54,22,30.23,30.03,12,2,14,0.00
2013-5-31,87.0,74.0,59.0,61.2,54.1,44.9,81,55,24,30.16,29.96,13,3,18,0.00
2013-6-1,87.0,75.9,59.0,61.2,56.0,51.7,81,53,30,30.06,29.85,15,3,16,0.00
2013-6-2,83.0,71.7,61.0,63.4,58.0,53.2,80,63,36,29.90,29.77,11,2,16,0.24
2013-6-3,77.0,69.4,61.0,62.3,51.6,42.6,81,55,36,29.89,29.78,14,5,16,0.32
2013-6-4,74.0,61.3,45.0,46.7,36.7,29.1,77,43,20,30.07,29.85,16,4,19,0.00
2013-6-5,76.0,62.1,46.0,49.1,40.9,30.1,82,51,25,30.15,29.95,12,3,14,0.00
2013-6-6,65.0,60.5,57.0,55.7,51.5,46.1,80,72,61,29.97,29.80,8,2,11,0.46
2013-6-7,66.0,62.6,59.0,58.9,55.8,52.1,81,79,75,29.80,29.60,14,3,17,0.45
2013-6-8,77.0,66.1,57.0,55.9,51.7,47.2,76,61,37,30.01,29.65,12,4,14,0.00
2013-6-9,79.0,66.9,55.0,58.6,52.3,46.3,80,62,37,30.18,29.99,7,2,9,0.01
2013-6-10,78.0,68.0,64.0,65.1,60.7,56.6,81,78,59,30.06,29.73,9,2,16,1.21
2013-6-11,78.0,68.6,59.0,58.9,55.2,52.2,82,64,46,29.79,29.69,20,4,22,0.03
2013-6-12,82.0,69.7,59.0,61.8,56.8,52.1,80,65,37,29.89,29.75,13,3,17,0.07
2013-6-13,80.0,68.6,64.0,62.9,55.9,47.0,82,65,42,29.78,29.44,31,6,31,0.95
2013-6-14,76.0,65.7,57.0,49.5,45.2,36.7,73,49,26,29.90,29.54,23,8,26,0.00
2013-6-15,78.0,67.0,52.0,50.0,43.1,29.3,78,46,19,30.05,29.86,16,5,16,0.00
2013-6-16,79.0,67.3,53.0,61.1,51.4,44.9,76,58,37,29.93,29.86,17,2,17,0.01
2013-6-17,84.0,71.7,60.0,63.9,55.8,49.1,80,60,31,29.97,29.83,18,2,18,0.00
2013-6-18,75.0,67.7,59.0,60.6,57.1,52.5,81,70,52,29.87,29.78,13,1,13,0.25
2013-6-19,77.0,65.4,54.0,56.4,47.3,38.7,79,55,27,30.07,29.84,12,3,12,0.18
2013-6-20,78.0,64.7,51.0,57.3,50.5,44.7,82,63,37,30.24,30.03,14,2,14,0.00
2013-6-21,81.0,65.6,52.0,53.8,48.7,43.0,82,59,31,30.29,30.13,11,2,14,0.00
2013-6-22,85.0,69.7,52.0,59.2,53.0,46.0,81,59,27,30.26,30.09,11,2,12,0.00
2013-6-23,84.0,71.8,59.0,61.9,57.9,52.8,82,63,40,30.19,30.06,8,2,10,0.00
2013-6-24,88.0,75.0,64.0,62.2,56.9,47.9,81,56,27,30.18,29.98,10,3,16,0.00
2013-6-25,89.0,78.0,63.0,65.2,57.9,49.5,80,53,30,30.06,29.91,37,3,43,0.00
2013-6-26,87.0,76.7,65.0,62.4,59.8,55.6,80,58,39,29.92,29.78,24,2,24,0.02
2013-6-27,82.0,71.1,62.0,65.5,60.1,55.7,82,69,46,29.78,29.57,23,3,23,0.14
2013-6-28,84.0,72.6,65.0,64.7,57.8,53.8,74,61,36,29.60,29.46,15,3,27,0.15
2013-6-29,84.0,71.8,62.0,60.1,54.0,47.4,77,56,29,29.68,29.44,12,2,15,0.16
2013-6-30,84.0,71.1,61.0,65.0,59.8,54.4,81,69,45,29.84,29.63,12,2,19,0.37
2013-7-1,81.0,73.0,66.0,64.0,61.2,58.6,81,67,49,29.95,29.81,11,2,14,0.05
2013-7-2,82.0,73.6,69.0,65.1,62.4,59.1,79,69,51,30.11,29.94,16,3,18,0.06
2013-7-3,82.0,73.5,68.0,64.8,62.8,60.5,79,70,50,30.21,30.09,9,2,12,0.01
2013-7-4,86.0,76.0,67.0,65.5,61.8,58.2,80,63,43,30.27,30.14,12,2,17,0.00
2013-7-5,86.0,76.0,64.0,66.1,61.5,57.3,81,63,42,30.24,30.11,11,2,16,0.00
2013-7-6,91.0,78.5,66.0,71.2,61.2,56.9,80,59,32,30.23,30.00,12,2,12,0.00
2013-7-7,89.0,74.6,66.0,68.1,61.1,56.7,80,65,37,30.13,29.96,39,3,39,0.29
2013-7-8,85.0,73.2,65.0,67.1,60.1,52.5,81,65,34,30.13,29.97,12,2,14,0.00
2013-7-9,79.0,72.4,66.0,65.6,62.3,58.9,80,71,55,30.10,29.96,7,1,10,0.02
2013-7-10,85.0,74.2,68.0,65.8,62.3,54.0,79,67,37,29.97,29.83,15,2,15,0.02
2013-7-11,83.0,74.5,67.0,62.4,57.5,52.3,77,57,36,29.96,29.80,15,3,22,0.00
2013-7-12,73.0,68.6,64.0,61.2,57.6,52.6,78,69,55,30.01,29.87,14,2,14,0.25
2013-7-13,84.0,73.3,67.0,65.3,61.6,56.8,79,68,42,30.24,29.98,11,2,11,0.03
2013-7-14,89.0,77.8,68.0,68.2,62.4,56.6,80,62,35,30.38,30.23,14,1,14,0.01
2013-7-15,92.0,79.1,65.0,70.4,60.8,55.2,81,57,31,30.35,30.21,16,3,16,0.01
2013-7-16,90.0,82.5,71.0,69.1,59.9,52.4,74,48,28,30.32,30.17,13,4,14,0.00
2013-7-17,92.0,81.5,69.0,70.5,60.4,50.4,76,52,26,30.30,30.11,13,3,13,0.00
2013-7-18,96.0,83.7,73.0,66.8,62.8,57.6,75,52,29,30.19,30.00,14,3,14,0.00
2013-7-19,90.0,78.0,72.0,70.0,65.3,63.0,79,67,41,30.08,29.96,17,2,17,0.00
2013-7-21,77.0,71.7,70.0,62.6,61.3,58.2,76,70,56,29.95,29.91,2,0,2,0.01
2013-7-22,87.0,74.5,66.0,66.7,62.9,58.9,80,69,42,29.95,29.73,9,1,11,0.31
2013-7-23,83.0,75.0,68.0,67.8,60.5,53.6,81,63,38,29.75,29.65,19,3,23,0.00
2013-7-24,79.0,70.8,58.0,59.8,52.5,45.4,76,55,34,29.87,29.63,14,4,17,0.00
2013-7-25,77.0,65.4,53.0,53.5,48.4,43.8,75,56,36,30.02,29.84,9,3,12,0.00
2013-7-26,81.0,68.7,54.0,59.6,48.9,40.9,81,54,25,30.09,29.93,7,1,10,0.00
2013-7-27,81.0,67.7,55.0,63.8,57.0,48.3,81,70,46,30.01,29.87,12,2,14,0.40
2013-7-28,83.0,72.9,66.0,64.6,59.1,50.7,81,64,34,29.94,29.84,7,2,10,0.00
2013-7-29,78.0,67.8,53.0,57.3,47.3,41.3,79,51,28,30.10,29.91,12,3,15,0.00
2013-7-30,80.0,70.1,52.0,54.3,48.4,44.0,80,49,30,30.21,30.05,9,3,12,0.00
2013-7-31,78.0,69.6,57.0,61.7,56.0,50.2,80,64,47,30.13,29.95,8,2,10,0.00
2013-8-1,81.0,71.1,64.0,62.4,59.7,54.4,81,68,45,29.95,29.80,9,2,12,0.26
2013-8-2,83.0,72.7,60.0,57.4,52.3,42.9,75,51,27,29.97,29.80,17,4,17,0.00
2013-8-3,76.0,68.6,60.0,59.6,55.9,51.7,77,64,48,29.94,29.83,14,3,14,0.01
2013-8-4,76.0,69.8,62.0,57.4,46.1,37.7,75,45,26,29.98,29.85,20,8,22,0.00
2013-8-5,79.0,68.1,54.0,52.6,45.8,39.2,75,47,25,30.10,29.93,12,2,14,0.00
2013-8-6,68.0,64.0,57.0,59.5,55.9,49.2,79,75,67,30.01,29.91,7,1,7,0.07
2013-8-7,78.0,69.4,65.0,64.8,61.1,58.3,81,75,61,30.02,29.97,8,2,12,0.20
2013-8-8,82.0,71.1,63.0,68.0,62.1,56.4,81,74,53,30.03,29.91,9,1,11,0.21
2013-8-9,83.0,76.5,71.0,68.4,64.6,61.1,80,67,51,29.93,29.86,11,2,14,0.04
2013-8-10,84.0,72.7,62.0,62.7,56.4,50.0,80,59,33,30.07,29.93,10,2,14,0.00
2013-8-11,85.0,71.3,59.0,61.6,55.9,50.3,81,61,38,30.14,29.97,9,2,13,0.00
2013-8-12,87.0,73.9,66.0,64.7,57.7,49.9,80,60,29,30.05,29.86,9,2,11,0.01
2013-8-13,82.0,71.5,66.0,64.3,58.4,47.2,81,65,42,29.86,29.72,13,3,24,1.36
2013-8-14,71.0,62.6,54.0,47.3,41.7,37.2,57,47,32,29.99,29.77,17,7,24,0.00
2013-8-15,77.0,62.6,45.0,53.1,42.8,37.0,82,53,26,30.15,29.96,7,2,10,0.00
2013-8-16,80.0,64.4,46.0,55.1,44.7,37.0,83,54,24,30.17,29.95,7,2,9,0.00
2013-8-17,78.0,68.5,49.0,57.3,47.7,41.4,82,51,29,30.26,30.06,7,2,9,0.00
2013-8-18,72.0,63.9,56.0,56.0,52.4,48.2,79,67,45,30.19,30.06,6,1,6,0.17
2013-8-19,76.0,63.4,56.0,59.6,54.7,49.2,81,74,54,30.07,30.00,7,1,7,0.00
2013-8-20,84.0,68.8,57.0,63.0,53.6,45.5,82,62,28,30.19,29.97,9,1,9,0.00
2013-8-21,87.0,71.5,56.0,63.9,58.1,49.6,82,65,40,30.22,30.01,7,1,7,0.00
2013-8-22,84.0,73.8,64.0,66.8,59.6,55.9,80,63,40,30.07,29.91,14,2,14,0.60
2013-8-23,77.0,68.0,57.0,61.5,56.0,43.1,79,67,36,30.06,29.90,11,1,11,0.02
2013-8-24,78.0,65.8,55.0,53.5,48.5,43.1,80,58,29,30.29,30.03,6,2,6,0.00
2013-8-25,81.0,71.0,54.0,57.7,51.9,47.3,78,54,32,30.38,30.16,16,2,16,0.00
2013-8-26,85.0,70.3,54.0,57.6,54.4,48.0,82,59,34,30.16,29.95,7,1,7,0.00
2013-8-27,88.0,79.7,72.0,62.9,58.9,54.5,64,50,34,29.99,29.90,13,3,13,0.02
2013-8-28,75.0,71.7,70.0,64.2,62.3,60.6,78,73,63,29.90,29.82,4,1,6,0.05
2013-8-29,82.0,71.7,64.0,64.1,59.9,56.6,80,68,45,30.04,29.82,6,2,6,0.05
2013-8-30,87.0,71.7,60.0,65.0,57.7,53.8,81,65,35,30.01,29.83,9,1,9,0.00
2013-8-31,88.0,76.8,63.0,99.9,61.4,51.7,100,60,32,29.91,29.77,9,2,9,0.01
2013-9-1,88.0,82.8,71.0,66.2,63.3,60.1,72,52,42,29.89,29.76,8,2,8,0.26
2013-9-2,88.0,78.9,68.0,62.6,60.5,58.2,77,55,38,29.84,29.70,8,2,8,0.02
2013-9-3,79.0,69.5,60.0,60.9,54.5,42.1,74,61,27,29.87,29.69,12,4,12,0.00
2013-9-4,81.0,66.9,56.0,49.2,46.4,39.0,72,52,24,30.05,29.87,11,3,11,0.00
2013-9-5,77.0,65.8,55.0,52.3,42.9,34.0,70,45,21,30.04,29.89,9,4,9,0.00
2013-9-6,75.0,60.2,45.0,41.4,37.1,31.5,76,47,22,30.20,29.95,8,2,8,0.00
2013-9-7,81.0,70.2,45.0,52.0,44.1,37.9,83,44,23,30.05,29.81,9,2,9,0.00
2013-9-8,80.0,70.0,56.0,56.1,52.1,46.0,74,55,41,29.94,29.81,11,3,11,0.00
2013-9-9,72.0,63.2,51.0,55.1,50.2,39.2,79,64,41,30.12,29.95,4,1,4,0.00
2013-9-10,88.0,63.3,60.0,62.5,54.4,52.4,79,74,38,30.15,29.99,9,1,9,0.00
2013-9-11,93.0,85.7,69.0,68.0,60.0,57.8,79,44,32,30.11,30.00,12,3,12,0.00
2013-9-12,76.0,73.6,68.0,63.2,60.6,58.2,79,64,58,29.88,29.71,7,3,7,0.35
2013-9-13,72.0,63.5,55.0,56.5,46.3,38.1,69,54,33,29.80,29.68,15,8,15,0.01
2013-9-14,67.0,57.1,44.0,39.1,37.0,35.3,74,49,31,30.01,29.94,8,3,8,0.00
2013-9-16,69.0,69.0,69.0,42.9,42.9,42.9,39,39,39,30.09,30.09,6,6,6,0.13
2013-9-17,43.0,42.5,42.0,35.3,34.9,34.6,75,74,74,30.13,30.13,0,0,0,0.00
2013-10-20,42.0,38.5,35.0,33.0,31.1,29.1,81,75,66,29.83,29.82,4,0,4,0.00
2013-10-21,66.0,46.6,31.0,41.0,31.7,25.9,84,61,24,29.98,29.71,16,2,22,0.00
2013-10-22,59.0,46.2,33.0,44.9,32.7,22.3,82,62,27,29.71,29.58,16,3,27,0.00
2013-10-23,53.0,41.7,30.0,37.6,26.9,19.0,81,58,29,29.63,29.48,17,3,17,0.00
2013-10-24,49.0,39.0,28.0,32.9,23.3,16.7,80,55,31,29.82,29.63,17,4,23,0.01
2013-10-25,52.0,39.3,27.0,27.9,23.6,19.1,79,55,31,30.06,29.80,24,5,24,0.00
2013-10-26,55.0,43.0,25.0,30.2,22.1,13.8,79,46,21,30.01,29.71,27,4,27,0.00
2013-10-27,56.0,42.9,30.0,31.7,24.8,19.8,78,52,25,29.90,29.67,21,3,21,0.00
2013-10-28,61.0,41.6,27.0,41.2,26.4,21.4,83,60,24,30.11,29.84,11,1,11,0.00
2013-10-29,62.0,44.9,32.0,38.5,31.2,25.3,80,62,32,30.24,30.00,9,1,9,0.00
2013-10-30,68.0,51.1,41.0,45.3,39.9,34.0,79,67,41,30.10,29.98,9,1,9,0.00
2013-10-31,65.0,57.5,51.0,53.7,49.7,44.0,81,76,61,30.00,29.61,17,2,17,0.05
2013-11-1,72.0,60.6,45.0,54.9,44.6,31.8,76,59,26,29.61,29.40,33,6,33,0.30
2013-11-2,62.0,51.2,40.0,46.2,36.0,30.4,82,58,34,29.66,29.45,20,4,22,0.00
2013-11-3,54.0,44.9,29.0,36.0,23.6,10.1,64,45,19,30.16,29.66,24,7,26,0.00
2013-11-4,43.0,33.2,23.0,21.7,15.1,10.4,71,49,27,30.37,30.16,12,2,14,0.00
2013-11-5,54.0,41.7,28.0,37.5,29.5,20.1,77,63,41,30.40,30.20,14,1,14,0.00
2013-11-6,65.0,53.0,44.0,46.6,40.5,35.9,78,64,43,30.21,29.83,17,2,17,0.00
2013-11-7,56.0,50.1,38.0,49.6,37.2,14.7,79,62,35,29.83,29.69,29,5,29,0.24
2013-11-8,47.0,37.9,24.0,25.6,19.3,14.5,76,49,27,29.98,29.73,30,5,30,0.00
2013-11-9,52.0,36.3,22.0,27.2,21.3,15.9,78,58,28,30.04,29.66,17,3,17,0.00
2013-11-10,56.0,41.7,27.0,35.8,22.4,18.5,81,50,26,29.93,29.61,35,6,35,0.00
2013-11-11,56.0,45.2,36.0,29.3,24.2,16.8,59,44,23,30.03,29.75,22,4,22,0.00
2013-11-12,52.0,36.2,23.0,32.1,14.8,4.0,68,42,27,30.01,29.75,27,10,27,0.00
2013-11-13,40.0,32.1,23.0,15.3,12.2,8.3,63,44,30,30.15,29.97,24,5,24,0.00
2013-11-14,55.0,36.5,22.0,16.4,8.8,-3.7,66,38,10,30.08,29.85,21,3,21,0.00
2013-11-15,59.0,38.4,23.0,27.5,17.9,4.8,73,49,13,30.02,29.84,15,2,15,0.00
2013-11-16,59.0,47.5,35.0,42.4,35.2,24.1,81,64,39,30.13,29.95,13,2,13,0.02
2013-11-17,59.0,53.6,48.0,51.8,47.2,42.4,83,79,74,30.00,29.52,24,4,29,0.13
2013-11-18,62.0,55.9,45.0,52.1,25.4,12.1,78,33,16,29.70,29.49,36,8,36,0.06
2013-11-19,46.0,38.9,26.0,22.4,18.0,14.3,65,43,33,30.03,29.69,29,7,36,0.00
2013-11-20,45.0,31.6,21.0,18.3,14.0,8.8,72,50,25,30.29,30.01,11,2,11,0.00
2013-11-21,44.0,34.3,19.0,30.9,23.3,12.1,79,65,49,30.25,30.09,6,1,6,0.00
2013-11-22,55.0,47.6,40.0,45.9,37.9,29.9,79,69,57,30.09,29.79,26,2,26,0.01
2013-11-23,50.0,37.1,24.0,37.5,17.0,0.6,63,44,28,29.89,29.76,34,11,34,0.01
2013-11-24,28.0,22.6,18.0,10.4,-0.1,-8.6,58,37,21,30.09,29.84,41,10,41,0.01
2013-11-25,36.0,24.9,13.0,8.2,2.2,-4.3,57,39,18,30.14,29.93,12,3,16,0.00
2013-11-26,35.0,30.9,29.0,30.1,18.9,6.6,83,63,38,29.93,29.32,24,2,24,1.64
2013-11-27,38.0,34.1,26.0,31.7,23.3,9.4,82,65,48,29.61,29.21,30,8,36,0.16
2013-11-28,33.0,27.8,23.0,14.0,9.3,5.4,58,46,33,30.08,29.61,26,5,30,0.00
2013-11-29,38.0,27.1,17.0,17.2,13.8,9.5,74,59,35,30.30,30.06,14,3,19,0.00
2013-11-30,34.0,22.8,14.0,17.2,11.4,7.8,79,63,38,30.31,29.96,9,1,12,0.00
2013-12-1,36.0,28.0,16.0,23.8,18.2,10.4,80,67,53,29.96,29.69,2,0,4,0.00
2013-12-2,44.0,36.2,32.0,27.4,25.0,22.9,76,64,46,29.69,29.56,2,0,4,0.00
2013-12-3,54.0,38.5,30.0,33.9,28.2,23.4,80,68,40,29.72,29.56,3,1,6,0.00
2013-12-4,54.0,41.8,28.0,40.2,32.3,22.6,83,70,50,29.85,29.65,5,1,7,0.00
2013-12-5,62.0,52.8,46.0,49.8,44.4,38.2,80,73,61,29.81,29.70,9,1,11,0.00
2013-12-6,57.0,43.9,35.0,51.2,37.0,27.9,81,77,69,29.87,29.66,12,4,19,1.53
2013-12-7,37.0,32.5,25.0,28.2,21.0,11.9,79,63,46,30.16,29.83,17,5,22,0.00
2013-12-8,124.0,24.0,20.0,99.9,15.4,8.9,81,70,52,30.19,20.49,7,2,12,0.00
2013-12-9,36.0,29.3,24.0,28.8,23.7,19.0,83,79,72,29.94,29.68,3,1,8,0.09
2013-12-10,99.0,30.0,22.0,99.9,18.5,4.6,100,63,39,29.79,29.64,16,4,23,0.85
2013-12-11,36.0,21.4,11.0,14.8,7.0,3.1,75,56,29,30.01,29.78,17,2,22,0.01
2013-12-12,30.0,20.9,10.0,14.1,0.7,-10.3,62,42,21,30.03,29.74,22,5,22,0.00
2013-12-13,38.0,23.9,9.0,11.4,6.0,-0.8,71,48,29,29.92,29.73,22,3,22,0.00
2013-12-14,31.0,26.7,21.0,26.1,18.4,10.0,82,71,53,29.98,29.40,9,2,9,0.00
2013-12-15,39.0,31.4,28.0,28.5,21.0,12.7,82,66,47,29.56,29.28,28,3,29,0.00
2013-12-16,32.0,26.1,23.0,16.8,10.7,6.2,62,52,43,29.80,29.55,27,4,27,0.00
2013-12-17,35.0,24.0,15.0,25.1,16.9,9.4,80,74,61,29.79,29.54,4,0,5,0.00
2013-12-18,34.0,27.7,16.0,21.7,13.6,8.3,81,56,39,29.82,29.59,22,4,24,0.00
2013-12-19,49.0,27.8,13.0,25.5,16.4,7.4,79,65,31,29.81,29.70,5,1,6,0.00
2013-12-20,49.0,37.3,29.0,33.4,25.5,22.1,78,64,37,29.79,29.67,4,1,6,0.00
2013-12-21,64.0,43.8,35.0,44.9,34.4,27.5,80,70,47,29.77,29.60,6,1,6,0.00
2013-12-22,67.0,58.0,48.0,55.4,50.6,42.1,82,77,62,29.78,29.57,27,3,27,0.00
2013-12-23,55.0,47.2,31.0,49.6,36.5,16.4,83,67,49,29.90,29.71,31,4,31,0.00
2013-12-24,36.0,26.7,18.0,20.4,10.9,-1.8,76,52,33,30.04,29.81,28,6,28,0.00
2013-12-25,27.0,20.7,13.0,10.2,5.0,0.2,64,50,38,30.17,29.94,12,3,12,0.00
2013-12-26,41.0,26.2,17.0,21.6,14.4,7.2,78,62,34,29.95,29.84,22,2,22,0.00
2013-12-27,48.0,29.8,17.0,21.8,12.4,4.4,78,54,18,30.06,29.91,19,2,19,0.00
2013-12-28,57.0,38.4,22.0,24.2,17.5,12.6,73,47,19,29.99,29.75,22,3,22,0.00
2013-12-29,46.0,39.7,36.0,38.2,30.4,18.3,81,70,34,29.76,29.28,26,2,26,0.00
2013-12-30,44.0,34.6,26.0,35.3,20.2,7.1,82,56,44,29.79,29.48,26,6,26,0.00
2013-12-31,38.0,26.8,18.0,18.6,10.8,5.7,70,51,34,29.88,29.71,39,4,39,0.00
2014-1-1,39.0,26.5,16.0,20.8,15.4,8.3,77,64,42,29.99,29.76,7,1,7,0.00
2014-1-2,30.0,27.2,22.0,23.7,19.6,14.4,80,73,66,29.76,29.29,16,3,16,0.00